Weather History for KGCK - December, 2012

Change the Weather History Date:

Friday, December 28, 2012

  Actual Average Record
Temperature  
Mean Temperature 19 °F 30 °F  
Max Temperature 30 °F 43 °F 71 °F (1999)
Min Temperature 8 °F 18 °F -10 °F (1983)
Degree Days  
Heating Degree Days 46 34  
Month to date heating degree days 877 926  
Since 1 July heating degree days 1857 2015  
Cooling Degree Days 0 0  
Month to date cooling degree days 0 0  
Year to date cooling degree days 1643 1298  
Moisture  
Dew Point 9 °F    
Average Humidity 73    
Maximum Humidity 92    
Minimum Humidity 53    
Precipitation  
Precipitation 0.00 in 0.02 in 0.09 in (1979)
Month to date precipitation 0.62 0.48  
Year to date precipitation 13.29 19.43  
Sea Level Pressure  
Sea Level Pressure 30.14 in    
Wind  
Wind Speed 11 mph (NNW)    
Max Wind Speed 20 mph    
Max Gust Speed 23 mph    
Visibility 10 miles    
Events      
T = Trace of Precipitation, MM = Missing Value Source: NWS Daily Summary

Daily Weather History Graph

Daily Weather History Graph

Search for Another Location

Airport or City:

Trip Planner

Search our weather history database for the weather conditions in past years. The results will help you decide how hot, cold, wet, or windy it might be!

Date:

Astronomy

Dec. 28, 2012 Rise Set
Actual Time 7:58 AM CST 5:31 PM CST
Civil Twilight 7:28 AM CST 6:01 PM CST
Nautical Twilight 6:55 AM CST 6:34 PM CST
Astronomical Twilight 6:23 AM CST 7:06 PM CST
Moon 6:08 PM CST (12/28) 7:54 AM CST (12/28)
Length of Visible Light 10h 32m
Length of Day
9h 33m
Full, 100% of the Moon is Illuminated
Dec 28
Full
Jan 4
Last Quarter
Jan 11
New
Jan 18
First Quarter
Jan 26
Full

Hourly Weather History & Observations

Time (CST) Temp. Windchill Dew Point Humidity Pressure Visibility Wind Dir Wind Speed Gust Speed Precip Events Conditions
12:54 AM 12.9 °F 2.6 °F 9.0 °F 84% 30.08 in 10.0 mi NW 6.9 mph - N/A   Overcast
1:54 AM 12.9 °F 0.7 °F 9.0 °F 84% 30.08 in 10.0 mi NW 9.2 mph - N/A   Overcast
2:54 AM 14.0 °F 1.2 °F 9.0 °F 80% 30.09 in 10.0 mi NW 10.4 mph - N/A   Overcast
3:54 AM 12.9 °F -0.9 °F 8.1 °F 81% 30.10 in 10.0 mi NW 11.5 mph - N/A   Overcast
4:54 AM 10.9 °F -3.4 °F 6.1 °F 81% 30.11 in 10.0 mi NNW 11.5 mph - N/A   Overcast
5:54 AM 10.9 °F -4.1 °F 6.1 °F 81% 30.11 in 10.0 mi NW 12.7 mph - N/A   Overcast
6:54 AM 10.0 °F -5.2 °F 5.0 °F 80% 30.12 in 10.0 mi NW 12.7 mph - N/A   Clear
7:54 AM 9.0 °F -5.1 °F 3.9 °F 80% 30.12 in 10.0 mi NNW 10.4 mph - N/A   Partly Cloudy
8:54 AM 10.0 °F -5.2 °F 3.9 °F 76% 30.13 in 10.0 mi NNW 12.7 mph - N/A   Clear
9:54 AM 12.9 °F -3.4 °F 6.1 °F 74% 30.17 in 10.0 mi NNW 16.1 mph - N/A   Clear
10:54 AM 18.0 °F 3.1 °F 9.0 °F 68% 30.17 in 10.0 mi NNW 16.1 mph - N/A   Clear
11:54 AM 21.0 °F 7.1 °F 10.0 °F 63% 30.16 in 10.0 mi NNW 16.1 mph - N/A   Clear
12:54 PM 24.1 °F 10.6 °F 12.0 °F 60% 30.12 in 10.0 mi NNW 17.3 mph - N/A   Clear
1:54 PM 27.0 °F 15.2 °F 15.1 °F 61% 30.09 in 10.0 mi NNW 15.0 mph - N/A   Clear
2:54 PM 28.9 °F 19.2 °F 15.1 °F 56% 30.08 in 10.0 mi NNW 11.5 mph - N/A   Clear
3:54 PM 30.0 °F 19.5 °F 16.0 °F 56% 30.09 in 10.0 mi North 13.8 mph - N/A   Clear
4:54 PM 28.0 °F 17.5 °F 16.0 °F 61% 30.12 in 10.0 mi North 12.7 mph - N/A   Clear
5:54 PM 19.0 °F 9.0 °F 12.0 °F 74% 30.15 in 10.0 mi North 8.1 mph - N/A   Clear
6:54 PM 17.1 °F 6.6 °F 10.9 °F 77% 30.18 in 10.0 mi NNE 8.1 mph - N/A   Clear
7:54 PM 12.9 °F 6.9 °F 9.0 °F 84% 30.22 in 10.0 mi WNW 3.5 mph - N/A   Clear
8:54 PM 12.9 °F 5.2 °F 8.1 °F 81% 30.22 in 10.0 mi NW 4.6 mph - N/A   Clear
9:54 PM 14.0 °F 2.9 °F 10.0 °F 84% 30.22 in 10.0 mi WNW 8.1 mph - N/A   Clear
10:54 PM 12.0 °F -0.4 °F 9.0 °F 88% 30.25 in 10.0 mi WNW 9.2 mph - N/A   Clear
11:54 PM 12.9 °F 0.7 °F 9.0 °F 84% 30.26 in 10.0 mi West 9.2 mph - N/A   Clear